User: anonymous   Login
Location: Champignolles
(47.0543°N, 4.5663°E)
Time: 08:08:22
(UTC+00:00)
Language:

deb Kosmos-1275 - Orbit

View from above orbital plane
View from above orbital plane
View from above satellite
View from above satellite

Ground track
Ground track

The orbit data is extracted from the following two-line orbital elements,

1 13467U 81053FP  21171.38584229  .00000654  00000-0  24455-3 0  9999
2 13467  82.9503 290.5066 0026869 169.3330 249.7134 14.30297754 27173
Epoch (UTC): 20 June 2021 09:15:36
Eccentricity: 0.0026869
inclination: 82.9503°
perigee height: 771 km
apogee height: 810 km
right ascension of ascending node: 290.5066°
argument of perigee: 169.3330°
revolutions per day: 14.30297754
mean anomaly at epoch: 249.7134°
orbit number at epoch: 2717

The dashed part of the orbit path shows where the satellite is in the earth's shadow,  

DLR